Theta_e
322 324 325 326 326 327 333 333 329 330 331 324 318 322 318 319 323 319 319 320 319 317 314 314 316 316 319 319 317 316 316 318 318 331 333 319 317 318 321 323 324 327 328 330 330 331 330 330 330 332 334 335 336 338 339 339 340 340 340 341 341 342 341 341 340 341 341 341 341 341 340 340 341 341 342 341 340 340 341 341 340 340 338 338 338 338 338 337 338 337 334 334 335 332 329 329 332
323 326 327 327 326 327 335 336 335 333 330 320 318 321 316 319 321 319 323 321 319 314 313 314 314 314 315 315 315 317 316 316 316 320 318 315 318 316 317 318 318 321 322 324 326 327 327 328 328 329 330 331 333 335 336 337 338 339 339 339 340 340 341 340 339 340 340 340 341 341 340 340 341 341 342 340 339 340 341 342 341 341 340 339 339 340 339 339 340 340 338 336 334 332 329 327 328
324 327 326 327 328 329 338 337 332 331 329 322 322 325 317 318 321 322 324 319 316 313 315 316 315 313 313 316 315 318 317 314 314 317 314 314 316 313 312 312 313 314 315 318 319 321 323 324 326 327 328 328 329 331 332 332 334 335 337 338 338 338 339 339 339 339 339 340 340 340 339 339 339 339 341 340 339 340 340 340 340 341 341 341 340 339 340 341 341 341 341 340 338 336 334 330 329
322 327 325 328 330 334 351 343 334 333 327 324 322 325 324 322 323 323 322 319 315 314 317 317 317 312 313 316 314 317 317 313 313 315 315 311 312 310 308 309 311 312 312 313 314 316 317 319 321 323 324 325 326 327 328 329 330 331 333 334 335 336 337 337 338 338 338 339 339 339 338 339 338 338 340 340 339 339 339 339 340 339 340 340 340 340 340 341 341 341 340 341 340 339 339 338 335
320 324 323 327 330 331 343 335 333 333 323 325 321 322 332 329 324 321 318 317 315 315 317 317 316 311 313 313 314 317 313 313 312 313 313 309 308 307 307 308 309 310 310 309 310 312 313 315 317 319 320 321 322 323 324 325 326 327 329 330 331 332 333 334 334 335 336 337 338 338 337 338 339 339 340 340 339 339 339 339 339 339 338 338 339 339 340 339 338 339 340 340 340 339 339 339 339
320 323 324 323 322 323 328 322 322 325 321 328 325 319 329 328 323 319 316 314 314 315 315 316 315 312 312 310 311 312 310 313 312 311 311 307 306 306 306 307 308 309 307 306 307 310 312 313 314 315 316 317 318 319 320 321 322 323 324 325 326 327 328 329 330 331 332 333 335 336 336 338 338 338 339 339 339 339 340 339 338 338 338 338 338 337 337 336 335 336 339 339 339 339 338 337 338
321 323 328 326 322 324 329 324 321 323 319 321 326 320 320 323 320 317 316 315 315 315 314 313 313 314 313 311 311 308 308 311 310 310 309 306 305 305 306 305 306 306 305 303 304 308 309 309 309 310 311 312 313 314 315 316 317 318 319 320 321 322 323 324 325 326 327 329 330 332 333 334 336 337 337 337 337 337 338 337 337 338 337 337 337 336 335 335 333 333 335 337 339 338 337 335 336
321 323 328 333 335 334 333 326 322 325 318 314 321 321 319 322 318 316 316 315 315 314 313 311 311 315 312 310 312 308 307 309 308 308 307 305 304 304 305 303 303 303 303 301 301 303 303 303 303 304 305 306 307 307 307 308 309 310 312 314 315 317 319 320 321 322 323 325 325 326 328 329 331 333 335 336 336 335 335 334 335 336 336 336 336 336 335 335 334 332 332 334 338 339 337 336 335
320 320 324 331 335 333 329 321 317 320 318 315 317 318 320 319 316 316 317 314 313 313 312 311 312 315 311 308 310 307 307 306 305 305 305 305 303 304 303 302 302 301 302 301 300 300 300 301 300 300 300 301 302 301 301 301 301 302 304 306 308 310 312 313 315 317 319 320 321 322 323 324 325 328 330 332 334 334 334 334 332 332 335 336 336 335 333 334 335 335 334 333 336 338 338 337 336
320 322 324 332 332 327 322 319 321 319 316 318 316 316 318 315 316 315 316 316 313 314 312 310 311 313 310 309 310 306 305 305 304 304 304 304 304 303 302 301 300 300 301 300 301 300 299 299 299 299 298 299 299 298 298 298 298 298 298 299 301 302 303 305 307 311 313 316 318 319 320 320 321 323 325 327 329 331 332 333 333 331 332 333 335 334 332 332 333 335 335 334 334 336 337 337 336
325 330 334 336 329 323 322 322 322 318 316 320 317 317 316 314 317 313 314 315 313 314 311 311 311 309 308 309 309 305 303 303 303 303 302 303 303 303 302 300 299 299 300 300 300 299 298 297 297 297 297 297 297 297 297 297 297 297 297 297 297 298 298 299 301 304 308 311 313 315 316 318 319 320 321 322 323 325 327 329 332 333 332 332 331 331 331 332 331 332 334 334 334 333 334 334 334
325 335 347 343 329 322 323 324 319 319 324 323 315 316 316 314 316 312 314 314 312 314 311 312 312 309 310 309 307 303 302 302 301 301 301 302 302 302 301 300 298 297 298 298 298 298 297 297 297 296 296 296 296 296 296 296 296 296 296 296 296 296 296 297 297 299 302 305 307 308 311 314 317 318 319 319 320 321 322 323 325 329 332 333 331 330 330 332 332 331 332 332 332 332 331 331 332
331 334 344 333 324 323 322 322 320 322 324 321 315 313 314 314 315 313 314 314 312 314 310 309 310 311 312 309 306 303 301 301 300 300 300 301 301 301 301 299 297 297 297 297 296 297 297 296 296 296 296 295 295 295 295 295 295 296 296 296 296 296 296 296 296 297 298 300 301 302 305 309 312 315 317 318 319 319 320 321 321 323 326 329 332 332 331 331 331 331 332 330 330 331 331 331 330
330 335 341 324 321 324 321 320 319 322 318 317 318 314 313 313 312 312 314 316 312 311 309 306 308 311 310 306 306 305 302 300 300 300 300 300 300 300 299 298 297 297 296 296 296 296 296 296 296 296 295 295 295 295 295 295 295 295 295 295 296 296 296 296 296 296 296 297 297 298 301 303 306 309 310 312 314 317 319 319 320 321 322 324 327 330 331 331 332 331 332 331 330 330 331 331 330
322 338 346 333 327 322 318 319 323 325 317 316 316 313 314 309 309 312 313 315 311 306 305 305 305 310 310 307 307 305 301 299 299 299 299 299 299 299 298 297 296 296 296 296 295 295 296 296 296 296 295 295 294 294 294 294 295 295 295 295 295 295 295 295 296 295 296 296 296 297 298 299 300 302 303 303 306 311 315 317 319 320 321 323 323 325 327 330 332 332 332 331 330 331 331 331 330
327 343 347 336 329 320 317 320 322 324 318 318 314 311 316 309 307 310 307 308 309 304 304 305 303 306 308 307 307 303 300 299 298 298 298 298 298 297 297 297 296 296 296 296 295 295 295 295 295 295 294 294 294 294 294 294 294 294 294 294 294 295 295 295 295 295 295 295 296 297 297 297 297 297 298 298 299 302 306 310 313 316 319 321 323 323 325 326 328 331 332 331 330 331 332 331 330
334 346 348 337 327 319 317 318 319 322 320 319 314 312 317 312 306 305 302 303 306 303 302 302 300 302 303 303 302 299 299 298 297 298 298 298 297 297 296 296 295 295 296 296 295 295 294 295 295 295 294 294 294 294 294 294 294 294 294 294 294 294 294 294 294 294 295 295 296 296 296 296 296 296 296 296 296 296 298 300 303 307 311 313 316 318 321 323 325 327 330 331 331 331 331 332 330
342 343 338 327 322 318 318 322 321 320 318 316 314 314 318 315 307 304 305 303 302 302 301 301 300 299 300 300 300 298 298 297 297 298 298 297 296 296 296 295 295 295 295 296 296 294 294 294 295 294 294 294 294 294 294 294 294 294 294 293 293 293 293 293 293 294 294 294 295 295 296 295 295 295 295 296 295 295 295 295 296 298 300 302 304 308 314 319 322 324 326 328 330 332 332 332 331
341 338 328 323 325 319 317 323 320 316 316 316 314 313 316 316 309 307 309 304 301 304 301 300 301 300 299 299 298 298 297 297 297 297 296 296 296 295 295 295 295 294 295 296 295 294 294 294 295 294 293 293 293 293 293 293 293 293 293 293 293 293 293 293 293 293 293 294 294 295 295 295 295 295 296 296 295 295 295 295 295 295 296 296 299 302 307 313 318 321 323 324 326 328 331 332 332
329 330 322 324 330 319 314 319 318 317 317 318 315 311 314 313 308 308 310 305 303 305 302 301 301 300 300 299 297 297 297 297 297 297 296 296 295 295 295 295 295 294 295 295 295 294 294 294 294 294 293 293 293 293 293 293 293 293 293 293 293 293 292 292 292 293 293 293 294 294 294 294 295 295 296 296 295 295 295 295 294 294 295 295 299 302 302 305 309 314 318 321 323 324 327 330 333
318 321 321 323 323 317 315 317 318 318 315 318 316 312 313 310 307 309 308 307 307 305 302 303 302 299 300 299 296 295 296 296 296 296 296 296 296 295 295 295 295 295 294 295 295 294 294 294 294 294 293 293 293 293 293 293 293 293 293 293 292 292 292 292 292 292 292 292 293 293 293 294 294 295 295 295 295 295 295 296 295 295 295 296 299 300 299 301 304 307 310 315 320 324 325 326 330
315 317 321 323 320 314 316 317 317 317 313 316 316 313 312 308 308 307 308 313 312 306 302 302 301 298 299 298 296 295 294 294 295 296 296 296 296 296 295 295 295 295 294 294 294 294 294 294 294 293 293 293 293 293 293 293 292 292 292 292 292 292 292 292 292 292 292 292 292 293 293 293 293 294 295 294 295 295 295 296 295 295 295 297 298 297 302 306 306 304 304 308 313 319 324 325 326
316 317 317 321 319 313 316 317 316 316 314 315 315 312 310 308 309 306 307 313 309 304 303 301 299 297 297 296 295 296 295 293 294 295 295 296 295 295 295 295 295 294 294 294 294 293 293 293 293 293 293 293 293 293 293 292 292 292 292 292 292 292 292 292 292 292 292 292 292 292 292 292 293 293 294 294 294 294 295 295 295 295 296 298 297 299 306 308 306 302 301 302 304 309 317 323 325
317 319 316 316 316 314 316 316 316 317 315 315 313 311 310 312 311 305 306 306 302 300 300 298 297 296 296 296 296 296 295 294 295 295 295 295 295 295 295 295 294 294 293 293 293 293 293 293 293 293 293 293 293 293 292 292 292 292 291 291 292 292 292 292 292 292 291 291 291 291 292 292 292 293 293 293 294 294 295 294 295 295 295 297 297 300 305 305 302 301 299 299 300 302 306 314 322
317 318 318 316 314 315 316 315 316 317 314 312 311 312 311 311 308 306 306 303 299 298 297 296 296 295 296 297 298 295 294 294 295 295 295 295 294 294 294 294 293 293 293 293 293 293 293 293 292 292 292 292 293 292 292 292 291 291 291 291 291 291 292 292 291 291 291 291 291 291 291 292 292 292 293 293 293 294 294 294 294 294 295 296 297 299 302 301 300 300 299 299 299 300 301 305 314
315 317 319 317 314 314 314 314 316 316 313 311 311 313 310 306 306 307 305 300 298 298 297 297 297 297 297 298 297 294 293 294 295 295 295 294 294 293 293 293 292 292 292 292 293 292 292 292 292 292 292 292 292 292 292 291 291 291 291 291 291 291 291 291 291 291 291 291 291 291 291 291 291 292 292 292 293 293 293 293 293 294 294 295 297 298 299 300 300 300 300 300 299 299 301 303 308
313 315 317 315 314 313 312 313 316 314 311 310 311 314 310 304 307 310 303 298 298 298 298 297 296 297 297 297 296 294 293 294 295 295 295 294 294 293 292 292 292 292 292 292 292 292 292 292 292 292 292 292 292 292 291 291 291 290 290 290 290 290 291 291 291 290 290 290 290 290 290 291 291 291 292 292 292 293 293 293 293 293 294 295 296 297 298 298 298 299 300 300 300 301 302 304 307
312 313 314 316 316 315 312 312 313 312 309 311 314 313 308 305 310 313 303 297 298 297 297 296 296 297 296 296 297 294 293 295 295 294 294 293 293 292 292 292 292 292 292 292 292 292 292 292 291 291 291 292 292 291 291 290 290 290 290 290 290 290 290 290 290 290 290 290 290 290 290 290 291 291 291 291 292 292 292 292 293 293 294 294 295 296 297 297 297 298 299 300 301 301 302 303 307
312 312 313 317 320 318 313 311 311 310 311 314 316 313 310 309 311 310 301 297 297 297 297 296 296 296 295 296 296 294 293 294 295 294 293 292 292 292 292 292 292 292 292 292 292 292 292 291 291 291 291 291 291 290 290 290 290 289 289 289 290 290 290 290 289 289 289 289 289 289 290 290 290 290 290 291 291 291 291 292 292 293 293 293 294 295 296 296 297 298 299 300 300 301 302 302 305
312 311 313 317 321 320 312 310 311 309 312 314 313 313 314 314 311 305 299 297 297 297 297 296 296 296 295 295 296 296 293 293 294 293 293 292 292 292 291 292 292 292 292 292 292 292 291 291 291 290 290 290 290 290 290 289 289 289 289 289 289 289 289 289 289 289 289 289 289 288 289 288 288 288 289 289 289 290 291 291 292 292 293 293 294 295 295 295 296 297 299 299 300 301 301 302 304
314 311 318 321 317 324 320 312 313 310 312 312 310 314 314 314 313 305 298 297 297 298 297 296 296 296 295 295 296 297 294 293 293 293 292 291 291 292 291 292 291 292 292 291 292 291 291 290 290 290 290 290 289 289 289 289 289 289 289 289 289 289 288 288 288 288 288 288 288 288 288 287 287 287 287 287 288 288 288 289 289 290 291 293 294 294 295 296 296 297 298 299 300 300 301 301 303
320 313 324 327 316 325 325 312 313 312 311 309 310 315 313 313 314 304 298 297 297 298 297 296 296 295 295 295 295 296 295 293 293 292 292 291 292 291 291 291 291 291 291 291 291 291 291 290 290 289 289 289 289 289 289 288 288 289 289 289 289 288 288 288 288 288 288 288 288 287 287 286 286 286 286 286 286 286 286 286 287 287 288 290 292 293 294 295 296 297 298 299 299 300 300 301 302
328 318 320 328 319 318 318 311 312 313 311 309 310 315 313 313 312 302 298 297 297 298 298 296 296 295 295 295 295 296 296 294 293 292 291 291 291 291 291 291 291 291 291 291 291 291 290 290 290 289 289 289 289 288 288 288 288 288 289 289 289 288 288 288 288 287 287 287 287 286 286 286 286 285 285 285 285 285 285 285 285 286 286 287 288 291 293 295 296 297 298 298 299 299 300 300 301
330 323 318 323 319 313 314 313 311 311 311 311 311 312 311 312 311 302 298 298 297 298 298 297 296 295 295 295 295 295 295 295 294 292 291 291 291 291 291 291 291 291 291 291 291 290 290 289 289 289 289 288 288 288 288 288 288 289 289 289 289 288 288 287 287 287 287 286 286 285 285 285 285 285 284 284 284 284 284 284 284 285 285 285 286 287 290 293 295 296 298 298 298 299 299 300 300
320 321 317 317 316 311 313 313 311 310 310 312 312 312 310 310 311 306 299 298 298 298 298 297 296 295 295 295 295 295 295 295 293 291 291 291 291 291 291 291 291 291 291 291 290 290 290 289 289 289 289 288 288 288 288 288 288 289 288 288 288 288 287 286 286 286 286 286 286 285 285 285 284 284 284 283 283 283 283 283 284 284 284 284 284 285 287 290 293 296 297 298 298 298 299 299 300
312 315 315 313 313 311 310 310 309 309 309 310 310 310 310 308 309 309 302 298 298 298 298 298 296 295 295 294 295 294 295 294 292 291 291 291 291 291 291 291 291 291 291 290 290 290 289 289 289 289 288 288 288 288 288 288 288 288 288 287 287 287 286 286 286 286 286 286 286 285 285 284 284 283 283 283 282 282 282 282 282 282 282 283 283 284 284 286 290 294 296 297 298 298 298 299 299
309 312 313 311 311 310 309 308 308 307 308 310 309 308 309 308 308 309 305 300 298 298 298 298 297 296 295 295 295 294 294 293 292 291 291 291 291 291 291 291 291 291 291 290 290 289 289 289 289 289 288 288 288 287 287 287 287 287 286 286 286 285 286 285 286 286 286 286 285 285 285 284 283 283 282 282 282 281 281 281 281 281 281 282 283 283 284 284 286 290 295 297 298 299 299 299 299
309 311 312 311 311 310 308 308 308 306 308 311 311 309 309 308 308 308 307 303 300 299 298 298 297 296 295 295 295 294 294 293 292 291 291 291 291 291 291 291 290 291 291 290 289 289 289 289 289 288 288 288 287 287 287 287 286 286 286 285 285 285 285 285 285 285 285 285 285 284 284 284 283 282 282 281 281 281 281 280 280 280 281 282 282 283 283 284 284 287 293 297 298 299 299 299 298
310 310 311 312 311 312 311 309 309 308 308 311 313 310 308 308 308 307 307 305 302 300 299 300 299 297 296 295 294 294 294 294 293 292 290 290 290 291 291 290 290 291 290 290 289 289 289 289 289 288 288 288 287 287 287 286 286 286 285 285 285 284 284 284 284 284 284 284 283 283 283 283 282 282 281 281 281 281 281 280 280 280 281 282 282 283 283 284 285 286 291 296 298 298 299 298 298
311 310 311 313 312 313 314 313 313 310 309 310 310 308 306 306 307 307 307 305 303 302 300 300 300 298 297 296 295 294 294 294 293 292 290 289 290 291 291 290 291 290 290 290 289 289 289 289 289 288 288 288 287 287 287 286 286 286 286 285 285 284 284 284 283 283 283 283 283 282 282 282 281 281 281 281 281 281 281 280 280 281 281 281 281 281 282 283 285 287 290 294 297 298 298 299 298
317 315 311 313 313 312 312 312 311 311 313 311 307 309 311 308 307 307 307 304 303 302 301 300 300 299 298 297 296 295 294 293 292 292 291 288 289 290 291 290 290 290 290 290 289 289 289 289 288 288 288 287 287 287 286 286 286 286 285 285 285 284 284 284 283 283 283 282 283 283 282 282 281 281 280 280 280 280 280 280 280 280 280 279 279 280 281 283 286 288 290 293 296 297 298 298 298
321 321 314 313 313 311 312 312 310 313 317 310 307 315 319 312 308 308 307 306 303 302 301 300 299 298 298 297 296 295 294 293 292 292 291 288 289 290 290 290 290 290 290 289 289 289 288 288 288 288 288 287 287 287 286 286 286 285 285 284 284 283 283 283 283 283 282 282 282 282 282 282 281 281 280 280 279 279 279 279 279 279 279 279 279 280 281 283 285 287 288 291 294 297 298 298 297
317 318 314 313 312 311 312 311 311 315 317 308 307 314 315 311 310 310 309 308 306 303 301 300 299 298 297 296 296 294 293 293 292 291 290 289 289 290 290 290 290 290 290 289 289 289 288 288 288 288 287 287 287 286 286 286 285 285 285 284 283 283 283 282 282 282 282 281 281 281 281 281 281 280 280 280 279 279 279 279 279 278 278 278 279 279 280 281 283 285 286 287 289 293 297 298 298
319 315 314 314 311 311 311 308 308 313 311 307 308 309 309 309 309 310 309 309 308 305 302 300 298 298 297 296 295 294 292 292 292 292 292 289 288 289 290 290 290 290 290 289 289 289 288 288 288 287 287 287 286 286 286 285 285 285 284 284 283 283 282 282 282 282 281 281 281 281 281 281 280 280 279 279 279 279 278 278 278 278 278 278 278 279 279 280 281 283 284 286 287 290 293 297 298
319 311 309 309 306 308 307 305 308 309 307 308 309 306 309 312 310 308 305 306 308 306 305 302 299 297 296 296 295 293 292 292 291 292 292 289 288 290 290 290 290 290 290 289 289 289 288 288 288 287 287 286 286 286 285 285 285 284 284 283 283 283 282 282 282 281 281 281 280 280 280 280 280 280 279 279 278 278 278 278 278 277 277 277 278 279 279 279 280 281 283 284 287 289 291 294 297
312 308 310 312 312 311 308 306 309 311 310 312 311 307 311 317 315 310 305 306 309 306 305 303 300 298 296 296 294 292 292 291 291 292 289 288 289 290 290 290 290 289 289 289 289 289 288 288 288 287 287 286 286 285 285 285 284 284 284 283 283 282 282 282 281 281 281 280 280 280 280 280 280 279 279 278 278 278 277 277 277 277 277 277 278 278 278 279 279 280 282 284 286 288 289 291 294
308 311 314 317 316 313 311 309 311 315 317 317 313 308 310 316 316 311 310 312 312 311 309 306 302 299 296 295 294 292 291 291 291 291 289 287 289 290 289 290 289 289 289 289 289 289 288 288 287 287 286 286 285 285 285 284 284 283 283 283 282 282 282 281 281 280 280 280 279 279 279 279 279 279 278 278 277 277 277 277 277 276 276 277 277 278 278 278 279 279 281 283 286 288 288 290 292
311 315 316 317 318 318 317 315 313 318 322 319 312 307 308 313 314 310 311 311 309 310 312 311 306 300 296 295 293 291 291 290 290 291 290 288 288 288 289 289 289 289 289 289 289 288 288 288 287 286 286 285 285 284 284 284 283 283 282 282 282 281 281 281 280 280 280 279 279 279 279 278 278 278 278 277 277 277 277 276 276 276 276 276 276 277 277 278 278 278 279 282 286 287 287 289 291
312 314 317 320 322 324 325 319 316 320 321 313 305 306 308 309 311 309 310 310 308 306 307 308 307 301 296 294 293 291 290 290 290 291 291 291 289 288 288 289 289 289 289 289 289 288 288 287 286 286 285 285 284 284 284 283 283 282 282 281 281 281 280 280 280 279 279 279 279 278 278 278 278 278 277 277 277 276 276 276 276 276 275 275 276 276 276 276 277 277 279 283 285 286 287 288 289
309 311 319 324 323 325 325 321 319 320 319 309 301 306 311 310 312 310 308 309 307 304 302 302 303 300 297 294 292 291 290 290 290 290 292 293 289 287 288 289 289 289 289 288 288 288 288 287 286 285 285 284 284 283 283 282 282 282 281 281 280 280 280 279 279 279 279 278 278 278 278 278 277 277 277 277 276 276 276 276 275 275 275 275 275 275 275 276 276 278 281 283 284 284 285 286 287
308 312 318 322 325 326 325 324 323 319 318 311 303 308 315 313 312 310 306 305 302 299 297 296 299 299 297 294 291 291 289 289 290 290 292 291 287 287 289 289 289 289 288 288 288 288 287 286 285 285 284 283 283 283 282 282 281 281 280 280 279 279 279 279 278 278 278 278 278 278 277 277 277 277 276 276 276 276 275 275 275 275 275 275 275 275 275 275 276 278 280 280 280 282 284 285 286
309 309 314 318 322 323 321 321 320 314 313 312 307 310 313 309 308 305 302 299 297 296 295 294 298 297 295 293 291 290 289 289 290 290 292 290 286 287 289 288 288 289 288 288 288 288 287 286 285 284 283 283 282 282 281 281 280 280 279 279 279 278 278 278 278 277 277 277 277 277 277 277 276 276 276 276 275 275 275 275 275 275 275 275 275 275 275 275 276 277 278 278 278 281 283 285 285
310 309 314 314 312 316 319 318 313 309 311 314 311 310 309 308 309 303 299 299 298 297 295 294 296 294 293 292 290 290 289 289 290 290 292 290 286 287 288 288 288 288 288 288 287 287 286 285 284 283 282 282 282 281 280 280 279 279 278 278 278 277 277 277 277 276 276 276 276 276 276 276 276 276 276 275 275 275 275 275 275 274 274 274 274 274 274 275 275 275 276 276 278 280 282 283 283
312 314 314 308 306 310 315 316 313 309 311 315 312 310 309 311 310 302 298 300 300 298 294 292 293 292 292 292 290 290 289 289 289 290 291 289 285 286 288 288 288 288 288 288 287 286 285 284 283 282 282 281 281 280 279 279 278 278 277 277 277 276 276 276 276 276 276 276 276 276 276 276 275 275 275 275 275 275 275 274 274 274 274 274 274 274 274 274 274 275 275 276 278 280 281 282 283
309 312 307 307 311 312 310 312 315 314 313 315 315 313 311 313 314 309 304 304 303 300 294 291 292 292 291 291 290 289 289 289 289 289 291 289 286 286 288 288 288 288 287 287 287 285 284 283 282 282 281 280 280 279 278 278 277 277 276 276 276 275 275 275 275 275 275 275 275 275 275 275 275 275 275 275 275 274 274 274 274 274 273 273 273 274 274 274 274 275 276 277 279 280 281 282 282
302 303 302 305 311 312 311 311 313 315 315 314 315 315 313 314 318 317 311 307 306 301 294 292 293 291 291 291 289 289 289 289 289 288 290 290 286 286 288 288 288 288 287 286 286 284 284 283 282 281 280 279 279 278 277 277 276 276 275 275 275 274 274 274 274 274 274 274 274 274 274 274 274 274 274 274 274 274 274 274 274 273 273 273 273 273 274 274 275 275 276 277 278 279 280 281 282
304 305 304 303 303 307 311 308 307 312 314 313 314 314 314 314 315 316 313 308 306 303 297 293 292 291 291 290 289 289 288 288 289 288 289 290 286 286 288 288 287 287 286 285 285 284 283 282 281 280 279 279 278 277 276 276 275 275 275 274 274 274 273 273 273 273 273 273 274 274 274 274 274 274 274 274 274 274 274 274 273 273 273 273 273 273 273 274 274 275 275 275 276 278 280 281 283
308 308 307 305 304 306 310 309 306 308 310 313 315 314 313 311 310 312 312 310 306 302 298 294 292 291 291 289 289 289 288 288 288 288 290 290 286 286 287 287 287 286 285 285 284 283 282 281 280 279 278 278 277 276 276 275 274 274 274 273 273 273 272 272 272 272 272 273 273 273 273 273 273 273 274 273 273 273 273 273 273 273 272 272 272 273 273 273 274 274 274 274 276 278 280 281 283
Wind_Speed
3 3 4 3 1 1 2 4 2 2 4 3 3 1 1 1 3 2 0 2 2 3 3 5 6 7 8 8 10 9 5 3 1 3 3 4 8 16 17 19 20 20 21 19 17 15 13 12 11 12 9 10 10 9 9 9 9 10 10 11 12 12 12 12 13 13 13 14 14 15 15 16 15 13 13 13 12 12 12 12 13 14 14 13 13 12 11 11 11 12 14 15 15 16 17 17 17
3 3 2 2 2 2 0 3 3 3 5 3 3 1 1 2 1 4 5 3 4 3 6 10 11 11 10 10 8 8 8 5 4 3 3 8 9 16 21 20 22 22 22 20 18 17 16 14 12 13 12 12 13 13 11 10 10 10 10 10 12 13 13 13 14 14 14 14 15 15 16 17 17 15 14 15 14 14 13 13 14 14 15 15 15 14 13 13 13 13 14 15 15 16 16 17 18
3 3 2 2 3 3 1 3 2 1 5 2 4 3 1 1 3 6 7 4 6 8 8 8 8 6 4 6 5 5 4 4 7 1 4 12 8 13 21 20 23 23 23 23 21 21 19 17 15 15 15 15 15 15 14 12 12 11 10 9 11 12 13 14 14 14 14 14 14 15 16 17 18 17 16 16 16 16 15 15 15 16 15 15 16 15 15 14 14 14 15 15 15 16 16 16 17
2 3 1 2 2 4 3 4 2 4 3 3 2 4 1 3 7 6 6 1 2 5 4 5 5 3 4 8 4 3 2 1 7 4 3 10 8 11 18 20 22 23 24 25 23 23 23 21 19 19 19 18 17 18 18 17 16 14 13 13 12 12 12 13 15 14 14 14 14 15 16 16 17 17 16 17 18 18 17 17 16 17 17 17 17 16 16 16 16 16 17 16 16 16 16 16 16
1 2 1 2 2 1 3 3 2 4 2 4 2 4 4 5 7 4 2 4 3 2 5 4 3 2 4 6 1 2 2 2 6 9 5 6 11 13 18 20 21 23 25 25 25 24 24 23 22 22 21 21 20 20 20 20 20 18 17 16 16 15 15 15 16 15 15 15 14 15 16 17 18 17 17 18 19 19 18 18 17 18 18 19 19 18 17 17 17 18 18 18 18 18 18 18 17
2 4 3 3 2 1 2 2 2 1 3 5 3 4 5 5 7 4 4 7 6 5 4 4 6 4 5 4 4 2 2 1 3 6 6 8 15 18 19 20 21 24 25 26 26 26 26 25 25 24 24 23 22 21 21 21 21 21 20 19 18 18 18 17 17 17 16 17 16 16 16 16 17 18 18 18 19 20 19 19 18 19 19 19 20 19 18 18 19 19 19 19 19 19 19 19 19
2 3 3 4 2 2 3 3 4 2 2 4 4 4 4 6 6 6 5 3 5 7 5 5 8 9 4 2 4 5 7 7 4 6 8 12 18 19 20 20 22 24 25 26 27 28 27 27 27 27 26 26 25 24 24 23 23 22 22 21 20 20 20 19 19 18 18 18 18 18 18 17 17 18 18 19 20 21 20 20 21 22 21 20 20 20 19 20 21 20 20 20 21 21 20 21 21
2 2 1 3 2 3 4 3 3 2 1 2 3 3 4 6 5 6 2 1 3 3 4 5 5 7 2 1 4 3 10 11 8 10 11 15 19 19 19 20 23 24 24 25 27 28 28 28 28 28 28 28 27 27 26 26 25 25 24 24 23 22 22 21 20 20 19 19 19 19 19 19 19 18 17 18 19 20 21 22 23 24 23 22 22 21 21 22 22 22 21 21 21 21 21 21 22
3 2 1 3 2 3 3 2 1 2 2 2 1 2 3 4 4 5 4 4 4 4 2 5 2 5 3 5 4 1 6 9 11 14 14 18 19 19 19 21 22 23 23 24 26 26 27 27 27 27 27 28 27 27 27 27 27 26 26 25 24 24 23 22 21 21 21 20 20 20 20 20 20 19 19 18 18 19 20 22 23 24 24 23 23 23 23 23 22 22 22 23 22 21 21 21 22
3 2 1 2 3 4 3 1 1 1 2 3 2 3 3 3 3 4 5 4 3 4 0 2 4 7 7 5 2 0 3 5 12 16 17 18 18 19 19 21 21 21 22 23 25 25 26 26 26 26 26 26 26 26 25 26 26 26 26 25 25 24 24 24 23 22 21 21 20 20 20 20 20 20 20 20 20 20 19 20 22 23 25 24 24 25 25 24 23 23 23 24 24 23 22 23 23
2 3 2 4 4 3 2 3 3 2 3 4 2 4 4 4 5 5 6 5 2 4 3 2 6 7 7 3 2 1 3 6 13 15 16 18 18 19 19 20 20 21 22 23 24 24 25 25 25 26 26 26 26 26 25 25 25 25 25 25 25 25 24 24 24 23 23 22 21 21 20 20 20 20 21 21 22 22 22 21 21 22 24 25 25 25 27 27 26 25 25 25 26 26 26 26 26
1 3 4 4 3 3 4 5 3 3 5 3 1 3 2 3 6 6 6 7 3 4 4 1 6 6 5 2 2 2 4 8 12 14 15 16 17 17 18 18 19 21 22 22 23 24 25 25 25 26 26 26 26 26 26 26 26 25 25 25 25 25 25 24 24 24 23 23 23 23 22 21 20 20 21 21 22 23 24 23 23 22 22 23 24 26 28 29 28 28 28 27 27 28 29 29 28
2 1 5 3 2 3 4 5 3 1 4 2 2 2 2 4 4 7 8 6 3 5 3 1 7 6 4 2 1 1 3 7 10 13 14 15 16 16 16 17 18 20 21 22 23 23 24 24 25 25 26 26 26 26 26 26 26 25 25 25 25 25 25 24 24 24 24 24 24 24 23 22 22 21 22 22 22 23 24 24 25 25 23 22 23 25 28 29 30 31 30 29 29 30 30 30 30
3 3 5 3 1 3 4 3 2 2 1 4 2 2 3 3 2 5 8 6 0 4 1 1 7 5 3 2 0 2 3 6 10 13 14 15 14 14 15 16 18 19 20 21 23 23 23 24 25 25 26 27 27 27 27 26 26 26 26 26 26 26 26 25 24 24 25 25 25 24 24 23 23 23 23 23 23 24 24 24 25 25 25 24 24 25 26 28 30 31 31 31 31 31 31 32 31
3 2 5 4 2 2 3 2 3 5 4 4 1 2 5 3 1 3 5 6 2 2 1 3 4 1 4 7 4 5 7 9 11 14 14 15 14 14 15 16 18 19 20 21 23 23 23 24 24 25 26 27 27 28 28 28 28 27 27 27 27 27 27 26 25 25 26 26 26 26 25 25 24 24 25 25 25 24 24 25 25 25 25 25 26 26 25 26 28 30 30 31 31 32 33 32 32
3 3 5 3 2 2 2 2 3 4 4 4 2 3 6 4 2 4 2 3 3 4 2 1 3 0 5 6 6 10 11 11 13 14 14 14 15 15 16 17 18 19 20 21 22 23 23 23 23 25 25 26 27 28 28 28 28 28 28 28 28 28 28 28 27 27 27 27 27 27 28 28 28 28 28 28 27 26 26 25 25 25 25 25 26 27 27 26 26 28 30 31 32 33 34 33 33
3 4 5 3 2 3 3 4 4 4 4 4 3 2 6 2 3 3 3 6 5 4 4 1 3 3 4 5 10 14 12 11 12 12 13 13 14 15 17 18 19 20 20 20 22 22 23 22 22 24 25 26 27 27 28 28 28 28 29 29 30 30 30 30 30 29 29 29 29 29 30 31 31 31 31 31 30 30 29 28 27 26 26 25 25 26 27 26 26 26 27 31 34 34 34 35 35
5 3 4 2 3 3 4 7 7 4 4 5 3 4 8 4 3 4 4 9 5 6 5 3 5 6 6 10 13 13 11 11 11 11 13 14 15 16 18 19 20 20 20 19 20 22 23 21 20 22 24 25 26 26 27 28 28 28 29 30 30 31 31 32 31 31 31 30 30 30 32 33 33 33 33 33 33 32 31 31 30 29 29 28 28 27 27 26 26 26 27 28 32 35 36 37 37
4 3 4 2 5 3 4 7 6 4 5 5 3 5 6 7 7 4 3 2 3 7 4 3 5 5 5 9 11 11 11 12 12 14 16 15 15 15 15 16 19 19 19 19 18 21 22 20 20 22 24 24 25 26 26 27 28 29 30 30 31 31 32 32 32 32 32 31 31 31 32 33 34 34 33 34 35 35 34 33 32 32 32 31 30 30 29 28 28 28 29 28 29 32 35 39 40
2 4 3 4 6 4 4 5 7 6 5 6 4 5 4 5 6 3 5 6 4 5 5 3 3 5 5 6 8 10 12 13 14 15 15 14 13 13 13 13 16 16 16 15 15 17 19 18 18 20 22 23 24 25 26 27 28 29 29 30 31 31 32 33 33 33 32 32 31 30 31 32 33 34 34 34 35 36 36 36 35 35 34 34 32 32 31 31 30 30 30 30 30 31 32 36 39
1 3 3 5 4 3 5 6 7 5 5 7 6 5 4 4 3 4 9 7 4 7 9 9 11 13 9 7 8 10 12 13 13 13 13 11 10 10 10 10 10 11 12 11 11 13 15 15 16 18 20 21 22 23 25 27 27 28 28 29 29 30 32 32 33 33 33 32 32 31 31 32 32 33 34 35 36 36 36 36 37 37 36 34 33 34 34 33 32 32 31 31 32 33 33 33 35
1 1 2 5 4 3 5 5 4 3 4 4 6 6 5 3 2 6 12 9 5 7 9 10 12 14 12 10 10 10 11 12 11 11 11 9 8 7 7 8 8 9 10 10 10 11 12 13 14 16 18 19 20 22 24 26 27 27 28 28 28 29 30 31 33 33 33 33 32 32 32 32 33 32 33 35 36 36 35 35 37 37 36 34 34 35 34 32 33 33 32 32 33 34 35 35 35
1 3 1 3 4 4 3 3 4 5 6 5 6 4 5 5 1 5 10 8 5 3 7 9 10 13 14 13 11 9 9 10 11 11 10 9 7 6 6 6 7 8 9 10 9 10 11 12 14 16 18 19 20 21 23 25 26 27 27 27 27 28 29 30 32 33 33 33 33 32 32 33 33 32 33 34 35 35 35 35 36 36 34 33 34 34 31 32 33 34 34 34 34 34 35 36 37
3 2 2 1 3 3 4 4 4 6 7 6 6 5 6 7 4 3 6 4 3 2 10 12 12 15 14 12 9 9 10 11 11 10 10 9 7 5 4 5 6 7 8 9 10 10 11 13 15 17 18 19 19 21 23 24 25 26 26 27 26 26 27 28 30 31 32 33 33 33 33 33 32 32 33 33 34 34 34 35 36 35 34 33 33 31 30 32 35 35 37 37 36 36 35 35 36
3 2 2 1 2 3 3 1 2 5 5 2 6 4 4 6 5 5 6 3 3 6 11 12 12 12 11 9 8 9 9 10 11 10 8 7 6 5 5 6 7 7 8 9 10 11 12 14 16 18 18 18 17 19 21 22 23 25 26 26 25 25 25 25 27 28 30 32 32 33 33 33 33 32 32 33 34 34 34 35 35 35 34 33 33 31 30 33 35 36 37 37 37 37 37 36 35
2 2 2 1 2 3 2 1 3 5 3 2 5 0 3 3 3 3 6 6 6 8 10 10 10 9 8 8 8 9 8 10 12 10 9 7 5 6 8 8 8 8 8 9 10 11 12 14 15 16 16 15 15 16 19 20 22 24 25 25 25 25 24 25 26 27 29 30 31 32 31 31 32 32 33 33 33 34 34 35 35 36 36 34 33 32 32 33 34 35 36 37 37 37 38 37 36
3 2 3 4 3 3 3 5 6 5 2 3 5 1 3 1 0 3 5 7 7 10 10 8 9 9 9 7 8 10 10 12 13 11 9 7 6 7 9 9 8 8 7 8 9 10 11 12 13 14 14 13 13 14 17 19 21 23 23 24 24 25 25 25 26 27 28 29 31 32 31 31 31 32 32 33 34 33 34 34 35 35 36 36 34 34 34 34 35 34 34 35 36 36 37 37 35
1 1 4 5 5 5 2 4 5 4 1 3 5 1 2 1 2 6 8 9 9 11 10 8 8 8 8 8 7 8 10 13 14 11 9 7 8 9 9 10 8 7 7 8 9 9 10 11 12 13 13 12 12 14 16 18 20 21 21 23 23 24 24 25 26 27 27 28 29 29 30 30 30 31 32 32 33 34 34 34 34 34 35 35 36 36 36 36 35 35 33 33 34 35 36 36 34
1 4 4 7 8 6 4 2 3 4 3 4 6 1 3 5 6 5 10 11 8 10 10 9 8 7 7 8 6 6 10 13 13 11 9 9 10 10 10 9 7 7 7 8 8 9 9 10 11 12 12 12 12 13 15 17 18 20 21 22 23 24 24 25 26 27 28 28 27 27 27 27 28 29 30 31 32 33 33 33 33 33 34 35 36 36 37 37 36 35 34 33 33 34 35 35 35
1 4 2 5 8 6 4 2 1 3 3 4 4 4 6 9 10 4 10 13 10 10 11 10 8 7 7 7 6 6 9 11 12 12 11 10 11 10 10 8 7 7 7 7 8 8 8 10 12 12 12 13 13 14 15 16 18 20 21 22 24 25 25 26 27 27 28 27 27 26 25 26 27 27 28 30 30 30 31 31 32 32 33 34 35 36 37 38 37 36 34 34 33 32 33 34 34
1 2 2 3 3 4 6 2 3 4 3 2 4 4 9 9 9 6 10 13 14 13 12 10 9 8 7 7 7 7 8 11 13 13 12 12 12 11 10 8 7 6 6 7 7 7 8 11 11 12 13 14 14 14 15 16 18 20 22 24 25 25 25 26 26 27 27 27 28 28 27 28 29 29 29 29 29 29 30 31 32 32 33 34 35 35 36 37 37 37 34 33 34 32 31 32 32
3 1 3 3 0 5 9 4 5 5 1 2 4 4 9 10 8 8 11 11 14 14 12 11 10 10 9 8 8 7 7 11 13 15 14 14 13 12 10 8 7 7 6 6 6 7 9 11 11 12 13 14 14 14 15 16 18 20 23 25 25 25 26 27 27 27 28 28 30 30 31 31 31 31 30 31 32 32 33 32 32 32 33 34 34 34 35 35 35 37 36 33 32 33 32 31 31
3 1 3 3 2 4 7 4 3 3 1 2 4 5 7 8 4 4 10 12 13 12 11 12 11 11 10 8 8 7 7 8 10 14 15 15 14 12 11 9 8 7 6 6 6 7 9 11 11 12 13 14 14 14 15 16 19 22 24 26 27 27 28 28 28 28 28 29 29 29 30 31 31 32 33 34 34 35 35 34 34 33 33 34 34 34 34 34 34 34 36 35 33 32 32 32 31
4 2 1 4 3 2 5 5 4 1 2 4 5 6 12 11 2 3 9 12 13 12 12 13 12 10 9 8 8 8 8 7 8 14 17 17 15 13 10 9 7 7 6 5 5 7 9 11 11 12 14 14 14 15 16 17 21 24 26 27 27 28 28 28 27 27 27 28 28 28 29 31 32 34 35 35 35 36 36 36 37 35 34 33 34 35 35 34 34 33 34 35 34 33 32 32 32
3 3 2 4 3 4 5 6 3 1 2 5 4 7 15 16 6 5 9 11 13 15 13 12 11 10 9 9 9 8 9 8 10 17 20 18 16 13 10 9 7 7 6 5 5 6 9 10 11 13 14 15 15 16 17 20 23 25 26 27 27 28 28 26 25 26 28 29 29 29 31 33 34 34 35 36 36 37 37 37 37 36 36 36 36 36 35 34 34 34 34 34 35 36 34 32 32
5 4 4 4 5 6 7 7 5 2 3 7 7 9 14 17 12 7 9 11 13 14 11 9 8 9 9 9 9 9 9 9 13 20 21 18 16 12 10 8 7 7 5 4 5 6 8 9 11 13 14 15 16 18 20 23 25 26 27 28 28 29 28 26 27 28 29 30 30 31 33 34 33 34 35 36 36 37 38 38 37 37 37 37 37 36 35 34 35 35 36 35 34 35 36 33 29
3 2 4 5 5 7 7 5 4 1 2 8 9 10 14 16 16 11 9 10 12 12 12 10 9 10 10 11 11 11 10 9 14 21 21 18 16 12 9 8 8 8 5 2 4 6 8 9 11 13 14 15 16 19 22 23 23 24 25 25 26 27 27 27 28 29 29 29 30 32 34 34 33 35 36 37 37 37 38 38 38 37 35 34 35 36 36 36 37 37 36 36 35 32 33 33 28
2 3 4 5 5 8 9 4 4 1 3 6 6 7 13 15 17 13 7 10 13 15 15 15 14 12 11 12 13 12 8 7 11 17 19 18 15 12 10 9 9 8 5 1 4 6 8 10 11 12 13 15 17 20 21 21 21 22 22 22 24 24 25 24 25 26 25 25 28 31 32 33 34 35 36 37 37 37 37 39 39 37 35 33 35 36 37 37 36 36 35 35 34 32 31 32 30
2 2 2 5 4 4 8 5 5 2 3 5 7 7 12 13 17 17 10 11 13 15 18 18 16 15 14 13 13 12 10 9 9 11 16 18 16 13 10 9 10 8 4 1 4 7 9 11 11 12 14 16 18 20 20 20 20 21 22 23 24 24 24 23 22 23 22 23 26 28 29 31 33 35 36 38 39 39 39 40 40 37 33 32 34 36 37 37 35 34 34 33 33 32 31 31 29
3 3 2 5 4 2 5 4 5 4 2 5 9 10 11 10 15 19 11 10 11 12 16 15 13 15 15 14 13 13 14 13 11 10 12 16 16 13 11 10 10 8 4 0 4 8 10 11 12 13 15 17 18 19 19 19 21 23 24 25 25 24 23 23 23 21 20 23 27 29 29 31 33 34 36 37 38 39 38 38 38 37 34 33 35 37 37 38 36 35 34 34 33 30 29 29 28
4 5 6 6 6 5 6 4 6 6 4 4 7 10 9 7 13 16 6 3 8 9 10 12 12 12 10 10 11 12 13 13 13 11 9 12 15 13 11 11 10 8 4 1 4 8 10 11 13 14 15 17 18 19 19 20 22 25 26 28 28 27 26 27 26 26 26 29 32 34 35 34 34 35 36 36 35 35 35 36 36 38 40 38 36 35 36 36 35 34 33 34 34 32 29 28 29
5 5 9 9 8 8 6 5 6 5 4 4 6 7 7 2 6 12 5 4 8 6 8 13 14 10 8 10 12 11 10 10 11 11 10 12 15 14 12 11 11 7 3 1 4 7 9 11 13 14 16 17 18 19 19 21 22 24 26 26 26 25 25 25 25 28 31 32 33 35 36 36 36 36 37 37 36 35 34 35 36 39 40 39 36 34 34 34 33 33 34 36 36 34 32 28 29
4 4 6 7 5 4 4 4 4 2 4 2 4 2 9 3 3 10 8 7 10 7 9 13 12 10 10 12 11 11 10 9 9 9 10 11 14 14 13 12 11 7 4 2 4 7 9 11 14 15 17 18 18 19 19 21 22 24 24 23 23 22 22 23 24 26 30 32 34 36 36 36 37 37 38 38 38 38 37 37 36 37 38 37 36 35 34 33 32 33 34 37 38 36 33 29 29
4 4 4 5 2 1 1 2 0 3 3 3 3 4 8 8 5 8 7 8 12 11 12 13 10 11 13 13 11 11 12 11 9 8 9 11 14 15 14 12 10 7 5 4 5 8 10 11 14 16 18 18 18 19 19 20 22 23 23 23 23 23 23 26 27 28 30 32 34 37 39 39 39 37 38 39 40 40 38 38 39 38 38 38 35 34 34 33 33 34 34 36 37 37 35 31 31
5 4 5 4 3 1 2 2 2 2 3 5 5 6 5 10 5 3 2 5 11 14 16 14 12 13 14 12 10 11 11 10 9 10 9 11 15 17 13 10 8 7 7 6 6 9 10 11 14 18 19 19 19 19 19 20 21 22 23 24 24 25 25 27 29 30 32 32 34 38 40 42 42 40 39 39 40 39 38 38 39 40 39 38 35 34 35 35 35 36 36 36 36 37 36 34 33
3 5 5 4 4 3 3 2 0 2 3 9 6 8 4 8 4 2 2 3 9 12 13 12 11 13 12 10 10 11 10 8 9 10 10 14 17 16 12 9 8 8 8 8 8 9 11 11 14 18 21 20 19 19 19 21 21 22 23 23 25 26 27 28 29 31 33 33 35 38 39 41 43 43 42 40 39 38 38 37 37 38 38 37 36 36 37 38 37 36 36 35 35 35 34 34 35
3 6 4 5 4 4 4 2 3 3 5 10 7 12 8 6 3 6 4 5 8 8 9 8 8 10 10 10 11 11 10 8 8 8 10 15 17 14 11 9 8 8 9 10 9 10 11 12 14 19 21 20 19 19 19 21 22 22 23 23 24 25 26 27 28 30 33 34 36 38 39 41 42 43 43 42 40 38 37 38 37 38 38 38 38 38 38 38 37 36 36 34 33 33 32 33 35
4 4 4 4 4 4 4 4 4 1 6 6 3 9 9 8 6 4 5 7 6 7 7 8 9 10 10 10 11 11 10 9 9 8 8 11 11 11 10 9 8 9 10 10 10 11 11 12 14 19 22 21 19 19 19 21 22 22 23 23 24 25 25 26 27 30 32 33 35 37 39 40 41 42 43 43 43 40 38 39 39 38 38 39 38 38 38 38 38 38 36 34 32 31 32 31 33
4 4 4 3 4 4 3 3 1 3 7 3 2 4 5 12 11 8 10 12 9 8 8 9 9 8 9 11 10 9 8 9 9 8 8 7 7 9 11 10 9 9 11 11 11 12 11 12 14 19 22 21 20 20 20 22 22 23 23 23 25 25 25 26 27 30 31 32 34 36 38 39 41 43 44 44 44 43 41 41 40 40 39 39 39 39 39 40 40 39 36 33 31 29 31 32 35
4 4 4 3 1 1 4 4 2 4 6 2 4 4 4 10 8 11 16 15 10 7 7 9 7 7 10 11 10 8 8 9 9 8 8 7 7 10 12 11 10 10 11 11 12 12 11 12 15 19 21 21 20 20 21 22 23 23 24 24 25 25 26 27 27 29 31 32 33 35 37 39 40 42 44 45 46 45 43 42 41 41 40 41 41 41 40 39 38 36 32 30 30 31 33 35 37
4 4 4 5 5 3 4 4 4 5 7 4 3 3 4 5 3 7 10 8 5 3 5 6 6 6 7 8 8 8 9 9 8 8 8 7 10 13 13 12 11 11 11 11 12 12 11 13 17 19 21 21 21 21 21 22 23 24 25 25 25 25 26 27 28 29 30 33 34 36 38 39 40 43 45 46 46 44 44 43 42 41 41 41 41 40 38 37 36 34 33 34 36 37 36 37 37
1 2 4 2 4 5 3 3 4 1 6 6 3 4 6 4 3 5 2 4 4 4 5 2 4 5 6 7 8 9 9 9 8 8 8 8 11 14 14 13 12 12 11 11 12 11 11 13 17 19 20 21 21 21 21 22 24 25 25 26 25 25 26 27 29 30 31 33 35 36 39 40 40 42 44 45 45 44 43 43 42 41 39 39 40 40 39 39 38 38 38 40 41 38 36 37 37
2 2 3 4 4 5 2 4 2 4 2 6 3 6 9 6 6 4 3 3 5 4 4 2 4 5 7 8 9 10 10 10 9 8 8 8 11 13 15 14 12 11 11 11 10 10 11 14 17 18 20 21 21 21 22 24 25 26 26 26 26 26 27 28 29 31 33 34 35 36 38 40 41 42 43 44 44 44 43 42 41 40 39 40 41 42 41 41 41 42 43 43 41 38 37 38 37
5 3 5 3 2 3 3 1 3 2 3 6 4 9 13 9 6 2 3 4 9 6 4 3 4 6 8 9 9 10 10 9 8 8 8 8 10 13 15 14 12 11 10 10 9 9 11 14 16 17 19 20 21 22 23 24 25 26 27 26 27 27 28 29 30 31 32 33 35 36 37 39 41 41 42 42 42 43 43 41 41 41 41 41 42 42 42 41 41 43 43 42 40 37 37 38 37
5 4 3 3 2 1 2 2 2 1 3 7 5 8 13 10 5 3 3 8 10 8 5 5 7 10 10 9 10 10 9 8 8 8 7 7 9 13 15 14 13 11 10 10 8 10 13 14 15 17 18 20 21 23 24 24 24 25 27 27 28 28 28 29 30 31 32 33 35 36 37 39 40 40 40 40 41 42 43 42 41 41 40 39 38 38 37 36 35 35 34 34 33 31 32 34 34
2 0 1 1 3 3 3 3 3 3 3 7 5 8 13 9 5 5 8 10 10 9 8 9 11 12 11 10 11 11 11 10 9 8 8 7 10 14 16 14 13 11 10 9 8 11 13 14 15 17 19 21 23 24 24 25 25 26 28 29 29 29 29 29 29 30 31 33 35 36 37 37 38 38 38 39 40 40 40 40 39 39 37 35 34 33 32 31 30 30 30 29 29 28 28 30 33
3 2 2 2 1 1 1 2 2 4 4 5 3 7 15 7 5 7 8 9 11 11 10 11 12 12 11 11 11 11 12 10 9 8 8 7 10 14 16 14 12 10 9 8 9 11 13 14 15 17 20 22 24 24 25 26 26 27 28 30 30 30 30 30 30 30 31 33 33 33 34 35 36 38 37 37 38 38 38 38 39 38 36 35 34 33 32 31 31 31 30 30 31 30 30 30 30
6 6 7 7 6 3 1 4 4 3 4 5 2 6 17 8 4 5 6 7 10 11 11 10 11 13 12 11 12 13 12 11 10 9 8 7 9 13 15 13 11 10 9 8 9 11 13 14 15 18 20 21 23 24 24 25 27 28 28 29 30 30 30 30 31 31 31 32 32 33 34 35 36 37 37 37 37 38 38 39 39 38 36 35 34 33 32 31 31 31 31 31 31 29 28 27 26
Wind_Direction
139 137 123 133 96 56 30 58 64 339 69 75 322 27 155 203 182 163 292 293 59 25 22 59 59 76 95 111 123 111 74 85 135 126 146 311 20 32 37 43 46 52 51 55 55 55 55 49 43 36 28 21 18 3 351 341 330 321 317 307 302 296 292 292 288 284 281 283 284 284 282 282 282 276 273 274 277 278 280 282 286 289 293 295 293 292 293 294 289 287 288 287 285 282 276 271 270
129 149 111 114 57 78 197 62 88 348 52 74 294 165 272 341 119 172 202 207 117 119 87 79 75 75 99 123 124 88 53 36 21 114 79 10 45 47 45 50 50 54 54 55 53 52 50 46 44 39 36 32 30 26 20 12 3 351 338 324 323 315 307 306 300 294 289 286 284 285 285 284 282 276 272 273 276 277 276 277 281 283 287 291 292 292 292 292 288 286 286 287 290 290 285 275 269
116 150 108 113 47 45 79 40 89 66 72 122 274 258 318 41 194 205 209 161 117 140 109 75 75 59 83 94 57 52 62 39 20 50 35 25 42 38 45 54 53 56 56 56 54 53 51 48 45 41 39 35 33 33 32 27 23 17 4 348 340 334 324 320 316 308 300 293 287 286 287 287 284 281 277 276 278 277 276 276 278 281 282 284 287 290 289 287 285 285 285 286 289 291 292 285 275
122 148 107 128 55 26 60 42 124 117 107 183 250 266 269 185 205 222 236 221 152 164 115 60 62 8 60 80 43 46 57 16 16 37 51 25 36 36 48 56 57 60 57 56 55 55 53 51 49 47 43 39 36 34 35 33 31 28 23 17 6 359 350 340 337 329 320 310 297 289 287 286 283 280 277 278 277 273 275 277 280 281 280 282 284 287 287 286 284 284 284 284 283 283 285 284 278
104 146 100 101 87 48 88 74 109 101 166 185 158 258 249 201 210 223 301 356 342 135 125 96 94 289 64 70 43 85 323 285 22 51 82 38 55 56 56 61 62 61 58 57 55 57 56 55 55 53 50 45 41 37 35 33 31 30 26 23 18 14 8 3 359 350 341 332 318 304 296 290 284 282 279 281 277 273 275 276 280 280 279 282 283 285 284 284 284 283 281 281 280 277 277 276 276
85 112 66 57 87 122 105 109 121 108 212 169 144 244 234 206 212 178 79 36 28 54 96 99 123 139 85 67 67 81 304 106 58 54 80 59 64 66 64 65 64 62 60 59 58 60 60 60 60 58 56 51 48 44 40 36 33 31 28 24 20 17 13 10 7 2 356 350 343 331 318 308 298 294 287 283 278 276 278 278 279 278 279 279 280 281 282 284 283 282 281 280 278 277 277 276 277
121 118 36 60 52 35 100 135 161 177 200 168 163 202 217 221 202 145 114 76 46 28 47 98 126 112 88 135 79 39 39 78 94 76 85 71 70 71 68 66 65 64 60 60 61 61 61 61 60 59 58 54 52 49 46 42 38 34 31 27 23 21 18 13 10 7 2 358 355 348 340 333 321 310 298 293 289 284 282 283 281 278 277 277 278 280 281 284 285 283 280 279 278 279 280 279 278
120 145 13 94 39 25 95 117 169 178 183 213 192 180 212 218 185 134 116 95 99 41 80 136 130 91 41 97 101 42 54 73 90 89 91 77 73 72 68 67 65 62 59 59 60 59 59 58 57 57 56 54 51 49 47 44 40 37 34 31 28 26 22 18 15 12 7 3 359 355 351 347 341 331 320 311 305 295 288 288 286 281 278 276 277 280 284 285 285 284 280 277 278 279 280 279 278
81 70 13 94 69 48 64 61 135 207 255 277 233 224 244 207 155 115 80 52 113 101 123 206 176 100 117 79 100 236 53 74 92 90 90 81 75 73 68 65 62 59 57 56 56 56 55 54 54 53 52 49 47 46 44 42 39 37 35 32 30 27 25 22 19 16 13 9 6 2 358 354 350 344 335 326 318 308 298 293 290 285 282 280 279 281 286 286 284 283 281 278 277 280 280 279 278
70 25 132 89 77 71 42 67 262 221 248 285 258 238 244 198 116 96 101 93 123 103 159 234 97 118 134 107 115 353 42 85 96 88 86 83 78 75 70 63 59 56 55 54 53 52 51 50 49 48 46 44 41 39 37 35 33 31 30 28 27 26 24 22 20 18 15 13 10 7 3 1 356 352 346 338 333 325 316 305 295 287 283 283 283 284 286 285 283 282 282 279 278 279 280 279 279
58 348 94 79 77 108 168 190 257 246 273 310 293 257 225 172 105 79 99 117 111 123 167 66 93 133 117 106 177 94 82 96 92 87 85 85 82 78 72 65 60 57 55 53 52 49 47 44 43 42 40 38 35 32 30 28 25 23 22 21 21 20 19 18 18 17 15 13 10 6 3 2 0 358 354 348 343 338 334 324 311 297 286 283 281 283 285 285 284 282 281 280 279 278 278 277 276
88 335 67 82 117 169 183 164 210 247 310 338 30 283 184 123 108 113 115 121 120 152 201 113 140 146 96 115 196 122 94 94 92 90 90 89 85 80 75 68 63 60 57 54 51 47 44 40 38 36 34 32 29 28 26 25 24 22 20 19 18 17 15 14 14 13 12 10 8 7 4 2 2 1 359 355 351 346 342 338 330 317 302 291 284 281 281 282 283 282 281 280 279 279 278 276 274
114 140 83 88 144 144 143 141 192 238 331 295 184 276 82 73 113 144 130 106 116 159 237 237 152 119 94 188 203 166 98 99 101 97 96 92 90 86 80 71 65 61 56 52 48 44 41 38 35 33 30 27 26 26 26 27 26 25 24 21 20 18 16 13 12 10 8 6 5 4 4 3 3 2 1 358 355 351 347 344 339 333 323 309 297 289 282 281 281 280 279 279 280 279 278 277 275
130 154 102 107 79 112 138 132 183 146 239 251 239 308 39 51 126 150 123 100 148 172 298 14 132 102 106 168 9 236 190 126 114 106 102 98 98 93 83 73 64 59 54 49 46 42 38 35 33 30 27 25 24 26 27 28 28 27 25 23 21 19 17 14 11 9 6 4 3 2 1 0 0 1 0 358 357 354 351 348 343 340 335 325 312 301 292 286 283 281 277 277 279 279 277 277 275
133 137 90 104 34 62 151 148 156 143 193 237 226 95 68 36 105 100 110 132 200 254 329 38 93 132 167 163 194 207 169 142 124 115 110 104 101 92 82 72 62 56 51 47 44 40 36 32 29 27 25 25 25 26 27 28 27 26 24 22 21 19 17 14 11 8 6 4 3 2 359 357 355 355 355 355 355 354 353 350 346 342 339 334 326 318 309 297 290 284 277 276 277 277 277 276 275
119 110 71 85 64 91 162 149 130 137 214 224 202 120 80 350 24 85 309 149 143 351 11 24 359 284 162 168 171 158 150 140 127 121 116 106 96 85 76 68 61 55 50 45 42 39 35 30 27 25 23 24 24 26 26 26 26 24 23 22 20 19 16 14 11 8 6 5 4 2 358 355 353 352 351 351 350 350 349 348 346 343 341 338 332 327 322 313 304 293 280 276 277 275 275 275 275
65 81 67 71 123 147 175 169 167 169 224 232 233 142 104 332 341 116 1 56 95 37 42 9 347 46 108 136 135 137 144 140 130 122 111 97 83 72 63 57 54 51 48 44 40 35 32 30 27 26 23 22 23 24 24 24 24 23 22 21 19 18 16 14 12 10 8 6 5 2 358 355 353 352 351 349 347 345 344 343 343 341 340 337 333 329 325 321 315 307 292 282 278 274 272 274 275
55 83 87 100 162 159 169 180 195 171 185 213 207 148 132 167 217 165 57 45 72 68 42 20 34 39 75 118 128 132 134 131 129 115 95 77 65 59 51 46 46 44 42 41 37 32 30 32 30 26 24 23 22 23 22 22 22 22 21 21 20 18 16 14 12 12 10 8 6 2 359 356 354 352 351 350 347 344 342 341 340 339 337 335 334 331 327 324 320 316 309 297 286 277 271 271 273
82 112 88 190 197 180 186 179 188 176 174 191 173 155 155 172 174 153 104 113 129 90 43 5 53 56 88 120 128 129 122 115 113 103 87 71 63 57 49 45 44 41 38 37 34 30 30 33 31 26 24 21 21 23 23 23 23 22 22 21 20 18 16 15 13 12 11 9 7 3 358 356 354 352 351 349 347 346 343 341 339 337 336 335 335 333 330 328 325 320 316 311 302 290 277 270 270
132 113 80 234 209 195 219 185 193 210 181 166 165 166 168 175 166 141 137 167 198 155 160 156 160 175 159 155 139 128 118 109 105 97 89 80 71 61 54 49 46 43 40 39 35 31 32 33 31 27 23 20 19 22 23 23 23 22 21 20 18 17 15 14 13 11 10 8 5 2 358 355 354 351 349 348 347 346 345 343 341 338 337 336 337 335 331 330 329 326 320 317 313 305 293 278 271
113 104 142 211 179 168 214 195 204 207 174 165 151 141 155 180 173 144 141 149 241 224 198 185 178 177 171 177 159 137 120 109 106 102 100 97 88 78 68 60 56 51 44 44 43 35 33 34 33 29 26 23 21 22 22 20 19 19 20 19 17 16 14 12 11 10 8 6 4 2 358 355 353 350 347 346 346 345 344 343 342 341 339 338 338 335 333 332 331 330 326 322 318 312 304 294 281
55 353 167 186 143 160 224 205 200 159 130 142 134 145 160 152 154 162 161 171 233 226 205 194 171 165 164 164 159 140 120 112 113 117 120 122 116 106 86 73 68 57 43 42 44 37 37 40 37 33 30 27 26 25 22 20 19 19 19 18 16 15 12 10 10 8 6 4 3 0 357 355 353 350 346 344 344 343 342 341 340 340 340 338 337 335 335 335 333 331 329 325 322 315 307 302 293
51 323 8 213 185 167 206 201 201 148 129 163 168 168 132 115 165 192 186 203 270 253 163 159 153 154 154 150 151 141 129 129 130 131 132 130 126 117 99 77 62 51 43 42 45 42 44 47 38 33 30 26 26 24 20 20 20 20 19 18 16 14 11 9 7 6 4 3 1 359 356 353 351 348 345 343 342 341 339 338 337 337 337 335 335 336 334 332 330 329 327 325 322 318 312 304 297
92 281 323 255 235 184 189 183 189 165 165 191 163 136 139 158 174 173 214 241 339 66 123 130 140 146 148 147 150 149 147 147 140 135 130 124 119 118 112 84 64 54 50 48 49 48 47 43 36 32 28 24 23 20 17 17 18 18 18 17 17 14 11 8 5 3 2 2 0 359 355 352 349 346 344 342 340 339 337 335 334 334 333 331 331 332 329 327 326 325 324 324 321 318 315 309 300
92 248 298 59 278 265 258 193 173 191 193 162 121 135 201 195 166 160 214 217 114 123 119 128 139 143 152 152 153 156 155 159 155 147 139 131 119 110 107 88 74 63 55 52 51 52 47 40 36 32 27 25 22 17 13 14 15 16 16 16 16 13 11 7 3 1 0 359 358 357 355 351 348 345 341 340 338 336 334 333 332 331 329 328 327 326 324 323 323 323 323 322 321 318 315 312 307
198 221 295 289 284 288 273 207 218 220 208 125 137 186 286 203 164 191 205 179 152 133 127 140 144 149 160 156 162 165 167 174 172 166 160 154 127 101 100 92 79 68 58 58 58 53 47 43 38 32 28 26 23 15 11 13 14 15 15 15 14 13 10 6 3 0 358 357 355 355 354 351 348 344 340 338 336 334 332 331 330 328 326 325 324 321 321 320 320 320 320 320 320 319 315 312 310
208 215 260 260 290 293 205 199 227 225 229 194 179 296 305 222 211 241 207 174 160 136 141 159 151 161 166 163 173 170 174 178 174 172 171 170 146 114 105 99 88 78 71 70 65 56 51 46 37 30 29 28 23 15 11 14 16 15 15 14 14 12 9 6 3 360 357 356 354 354 353 351 348 344 340 337 334 332 330 328 327 326 324 322 321 318 317 317 316 315 315 317 317 316 314 312 309
233 315 295 294 325 314 240 212 227 193 199 171 140 64 305 313 286 226 186 168 165 149 157 175 167 172 170 169 176 173 180 178 173 170 164 159 145 128 117 108 98 91 86 80 71 62 56 46 35 29 29 29 23 15 14 16 16 15 15 15 14 12 10 6 2 358 355 354 353 353 351 349 346 343 339 336 333 330 327 325 324 322 321 320 318 316 314 313 313 311 311 312 313 314 312 311 309
12 38 335 313 353 346 310 275 221 173 197 166 129 325 270 221 244 216 161 159 161 157 168 182 182 182 177 176 176 183 188 180 176 171 156 144 138 130 122 114 106 103 97 85 74 67 58 42 32 30 30 28 23 18 17 17 15 15 16 16 15 12 10 5 1 357 354 352 351 351 349 347 344 341 338 335 332 328 326 324 322 320 318 317 315 313 312 311 310 309 308 309 310 311 311 311 310
315 47 40 324 357 340 309 348 143 155 189 173 143 276 255 226 236 197 152 157 153 169 185 186 189 187 183 183 181 195 195 184 180 172 156 140 136 131 125 121 116 111 101 88 76 70 56 37 31 31 30 27 24 21 17 15 14 15 16 15 13 10 7 3 0 356 353 352 350 348 347 344 342 340 338 336 333 331 328 325 323 320 318 316 313 311 309 308 307 305 305 306 307 308 308 309 309
341 20 48 8 356 289 295 339 123 147 204 153 120 255 259 253 246 187 164 166 163 181 194 188 194 191 187 189 187 197 200 189 176 166 155 141 139 138 136 133 127 120 102 89 78 67 48 32 31 30 28 26 23 20 15 13 14 15 15 13 10 7 4 1 358 356 353 351 348 347 346 345 344 343 341 338 334 331 329 325 322 320 318 316 312 309 306 305 304 302 301 302 303 304 304 305 306
35 348 313 345 303 276 301 292 171 172 252 96 126 241 267 271 257 186 167 174 177 188 195 192 197 193 189 194 191 194 202 194 175 162 154 147 147 146 147 142 130 122 102 91 80 61 38 29 28 27 26 23 20 16 11 12 13 15 14 11 8 4 0 359 357 355 353 351 349 349 347 347 346 344 341 337 332 329 327 324 322 319 317 314 311 308 304 301 300 299 298 298 298 300 301 301 302
4 69 245 271 242 295 316 308 226 211 152 156 190 243 272 276 279 176 169 180 190 197 198 197 200 197 192 193 193 191 196 196 184 174 163 155 154 151 149 145 131 121 107 97 75 48 28 25 25 24 25 19 16 11 7 10 13 13 11 8 4 0 358 357 355 354 352 350 349 348 347 346 344 341 339 337 333 330 328 324 321 320 318 315 311 307 303 299 297 295 294 294 294 294 297 298 299
322 12 243 250 229 251 297 305 317 16 165 218 225 243 260 266 292 152 186 189 195 206 206 204 202 198 196 192 194 196 192 194 194 186 175 164 160 156 153 147 134 123 113 95 63 35 21 21 21 22 20 14 10 5 4 8 10 11 8 5 1 358 356 355 353 351 350 348 348 347 345 342 340 339 339 337 333 329 326 322 320 319 317 315 312 308 303 299 295 292 289 289 290 291 291 293 296
245 270 273 288 264 219 244 272 296 72 213 232 225 249 262 269 268 190 200 198 203 213 211 208 204 197 199 196 195 200 195 195 196 186 178 171 165 160 157 149 135 130 122 91 53 26 16 16 17 17 13 7 3 360 3 6 8 8 5 2 359 356 353 352 350 349 348 348 348 345 341 339 338 338 337 335 332 327 324 322 319 317 315 313 310 307 304 299 295 291 287 285 286 287 287 288 292
201 223 213 255 273 258 240 243 256 225 249 250 231 244 262 270 270 229 202 202 211 222 220 214 207 201 202 201 201 202 199 201 194 185 180 175 170 160 155 150 140 141 135 83 42 18 12 11 11 11 6 1 356 357 2 5 6 4 2 359 355 352 350 348 348 348 348 347 345 341 337 337 336 335 334 332 330 326 323 320 317 315 314 311 308 306 303 299 295 292 288 285 284 284 285 286 288
160 190 222 245 248 273 271 252 273 189 214 261 234 235 258 266 269 253 206 202 217 224 227 222 209 206 205 204 205 201 202 202 189 185 184 179 172 161 152 152 152 154 151 75 29 11 7 6 5 4 359 354 352 356 2 4 3 0 358 355 349 347 346 345 345 345 345 343 340 337 335 334 333 332 331 330 329 325 321 318 316 314 313 311 306 304 302 298 294 291 288 284 281 279 280 283 286
155 208 248 275 233 257 279 282 308 214 177 265 246 235 257 260 268 263 194 192 220 217 219 223 212 210 210 204 205 202 199 196 188 189 190 186 174 161 155 159 165 166 164 91 17 4 1 1 358 355 351 349 351 356 0 359 357 355 353 348 344 342 342 342 339 339 339 337 334 332 332 332 330 330 330 329 327 324 320 317 316 314 313 311 307 305 304 301 295 289 286 282 279 276 275 278 283
175 191 229 281 251 271 292 306 341 357 166 267 274 259 259 258 267 265 215 199 224 216 215 220 210 209 211 205 202 197 193 192 189 192 194 192 180 162 157 164 173 175 173 120 6 358 357 355 349 346 345 347 350 353 355 352 349 350 348 345 343 340 338 337 332 332 333 329 326 326 327 328 328 328 328 328 327 325 323 319 317 317 314 312 309 307 305 303 298 290 284 281 278 276 273 273 277
192 189 204 265 273 308 285 302 345 329 230 266 285 277 262 254 262 265 242 213 228 224 222 225 215 214 214 206 201 195 193 190 186 190 194 192 182 166 162 170 175 178 182 243 358 354 352 349 343 341 343 345 347 348 349 345 343 346 346 344 342 339 335 332 329 328 326 324 324 325 326 326 327 326 326 327 326 325 323 321 318 314 310 309 308 304 302 301 298 292 284 280 278 275 273 271 273
248 207 204 242 266 247 241 289 338 325 306 310 318 298 268 231 243 260 276 249 245 233 228 233 227 224 216 204 206 202 197 188 182 186 190 190 181 168 167 175 179 183 192 285 351 350 346 344 340 339 340 341 343 344 343 341 340 344 344 342 341 339 335 333 331 328 326 325 326 326 326 326 325 324 324 324 322 321 319 317 314 310 307 308 306 302 299 297 296 294 288 283 276 270 270 272 274
295 232 209 226 250 256 270 327 351 346 326 347 12 323 277 202 230 257 292 298 257 229 223 234 228 220 208 205 207 202 200 193 185 183 182 184 178 170 172 180 184 189 199 284 336 341 340 339 338 337 337 338 339 340 339 337 339 342 342 340 338 335 330 327 325 323 321 322 322 322 321 322 323 322 322 322 320 318 315 313 311 309 308 307 304 301 298 295 295 296 295 293 286 274 267 269 272
294 245 195 203 225 266 300 353 7 312 268 294 65 310 274 276 207 247 257 259 258 245 232 237 231 216 210 212 206 193 194 193 186 183 178 178 176 174 180 185 188 195 208 251 313 327 330 333 335 335 335 336 336 337 336 334 336 338 337 334 330 325 317 314 315 315 315 317 317 317 317 318 320 320 319 320 319 317 314 312 311 308 306 304 301 298 295 294 293 293 294 295 295 289 275 264 264
242 226 138 128 130 255 214 84 5 244 271 281 160 174 274 279 240 243 244 244 263 263 248 243 230 219 218 215 203 192 193 188 179 178 176 177 177 179 183 185 190 198 212 242 294 315 323 328 332 333 332 333 334 334 333 331 332 333 330 328 324 318 313 311 313 314 314 315 316 316 317 317 317 317 316 317 317 315 313 311 310 308 305 303 300 295 293 293 293 292 292 291 292 293 286 273 263
239 195 121 103 105 159 148 115 260 283 349 291 205 148 267 276 251 278 299 240 257 261 254 247 228 220 221 212 198 195 194 184 174 172 174 177 178 182 182 180 192 204 217 244 283 307 317 322 326 328 329 330 332 331 329 327 329 329 326 323 319 315 313 312 314 315 314 315 315 315 316 316 316 315 314 314 314 313 310 307 308 308 306 303 298 293 293 293 293 290 289 289 287 288 289 284 272
222 132 99 60 66 71 71 76 321 36 328 271 229 155 223 274 230 160 30 239 245 252 254 250 231 222 218 202 194 194 189 182 178 173 174 178 177 179 178 180 199 213 224 245 277 302 310 314 321 324 326 328 330 328 326 326 328 326 322 320 315 314 314 314 315 314 315 315 314 313 313 313 313 313 312 312 312 310 308 306 305 305 304 301 296 292 292 292 292 291 288 285 283 283 286 287 282
119 90 55 17 27 46 47 50 68 52 278 268 230 173 188 278 244 167 185 219 218 230 253 257 233 221 208 193 194 192 184 180 179 175 175 177 176 175 176 190 211 224 230 245 273 297 302 307 316 320 322 326 327 325 324 324 326 322 318 317 313 312 314 314 314 312 313 314 311 310 310 310 309 309 309 310 310 309 308 306 303 302 301 298 295 292 291 291 291 291 289 283 279 279 282 285 287
92 75 49 6 337 13 20 357 47 67 256 269 232 173 186 244 244 190 224 246 221 214 244 250 230 218 202 193 195 189 182 177 173 175 176 175 177 178 181 197 220 231 237 248 271 289 292 299 312 317 320 324 325 323 323 322 321 318 317 315 313 313 313 312 311 309 309 309 307 307 307 307 307 306 307 307 309 310 308 306 303 301 298 296 295 292 291 290 290 290 287 280 276 277 281 284 286
87 90 74 40 335 354 345 310 49 221 247 254 122 139 216 245 246 237 244 255 248 223 227 239 233 217 199 194 194 185 176 176 173 172 175 175 181 181 183 202 222 232 241 252 269 281 282 293 312 317 318 322 322 322 322 321 319 318 318 316 315 315 312 310 308 306 305 304 304 304 304 304 304 304 305 306 307 309 307 304 302 299 297 295 294 292 290 290 289 288 282 275 273 276 282 285 285
144 146 128 126 112 344 278 270 268 265 270 247 130 122 268 271 260 234 232 243 251 237 233 244 239 210 199 195 185 177 177 179 175 171 175 177 180 182 189 206 221 231 243 253 267 275 277 294 315 318 316 319 322 322 321 318 317 318 318 317 317 315 312 309 307 304 303 302 301 300 300 300 300 300 302 303 306 307 305 302 300 297 296 294 293 292 291 290 287 284 279 277 279 282 284 285 284
175 164 139 148 154 181 233 236 242 281 302 274 157 140 249 270 271 223 231 260 283 283 268 261 247 209 188 178 170 173 181 181 176 174 178 180 180 185 195 207 221 232 244 256 268 273 277 299 316 317 314 318 322 321 317 315 317 318 319 318 317 315 311 308 305 303 302 301 300 299 297 297 297 298 300 302 303 304 303 301 299 296 295 294 293 291 289 288 285 281 281 284 286 285 283 283 283
212 138 113 171 182 170 206 237 213 279 320 285 204 204 230 242 259 217 226 310 306 322 317 263 218 190 157 166 176 179 184 182 180 178 180 185 184 188 197 208 221 233 244 260 269 270 280 304 315 313 313 319 319 315 314 316 318 319 319 319 317 315 312 308 306 304 302 301 299 297 296 296 297 298 300 302 302 302 301 300 297 295 294 294 292 290 288 286 283 280 283 285 284 282 279 281 283
166 136 177 216 181 134 150 281 333 71 294 273 264 266 274 310 291 212 125 302 273 309 325 225 196 178 169 185 186 183 188 183 182 182 180 184 187 193 200 208 221 233 246 261 267 269 287 306 311 311 314 317 314 314 317 320 321 320 319 319 318 316 313 310 307 305 304 302 299 297 296 297 298 299 300 301 301 300 299 298 296 293 294 293 291 289 286 284 282 280 281 282 279 277 277 279 281
128 179 213 197 120 90 108 273 339 40 252 270 294 281 283 299 296 283 68 272 255 260 261 221 204 193 193 199 191 188 189 181 182 186 184 185 189 196 202 211 223 234 248 259 261 272 292 304 308 312 313 312 313 318 322 322 322 321 319 318 317 315 313 311 308 306 304 302 300 298 298 297 298 300 301 301 300 300 299 297 294 292 293 293 291 288 285 283 282 280 278 276 274 274 275 277 277
127 195 214 131 140 149 104 158 245 209 240 269 290 295 282 265 247 263 231 228 237 237 215 201 206 205 204 201 192 189 186 183 187 187 188 189 190 198 204 213 224 235 246 250 258 277 293 304 309 311 309 311 318 323 323 323 322 320 318 317 317 315 313 311 309 307 305 302 301 300 299 298 299 301 301 301 300 298 298 296 293 293 293 292 290 287 284 283 282 279 278 275 273 274 272 273 276
91 250 324 59 167 174 163 173 190 174 224 268 298 314 287 256 195 208 214 208 216 215 201 205 209 207 205 197 189 189 189 190 190 186 188 191 194 202 208 215 226 234 237 241 260 282 296 306 308 310 314 320 325 326 324 323 322 320 319 318 317 316 315 312 310 308 305 303 302 301 300 300 300 301 301 300 299 297 296 295 293 293 293 292 289 286 283 282 280 279 280 280 280 279 275 273 276
169 206 227 217 169 135 216 217 168 163 216 253 285 291 278 260 153 193 207 198 208 207 200 208 211 210 207 197 191 191 193 192 186 185 186 189 199 205 210 219 227 228 230 242 268 287 297 303 308 317 324 326 326 325 324 322 321 321 319 319 318 317 315 313 311 310 306 304 303 302 302 302 301 301 300 300 299 297 296 295 293 292 291 290 288 284 282 280 280 279 278 281 281 278 273 271 273
183 197 200 196 183 151 233 250 217 173 217 225 163 269 271 265 139 185 192 185 208 206 197 204 211 210 204 198 197 193 193 191 184 183 185 186 199 206 212 219 217 218 229 249 273 287 293 304 318 326 326 324 323 322 321 320 321 320 319 318 317 316 316 315 313 312 308 306 306 305 305 304 301 301 300 299 297 297 296 295 292 290 289 288 285 281 281 280 278 278 278 280 278 275 274 272 274